This demonstration page uses our WeatherBlox Daily Observations layout. Learn more.

Left ArrowRight Arrow

38.20091, -84.87328

Hourly Observations for February 2, 2022

Temp ( °F °C ) Dew Point ( °F °C ) Humidity (%) Winds ( mph kmh ) Pressure ( in mb ) Visibility ( mi km ) Precip ( " mm )
12:53 am 00:53 Clear 50 10 28 -2.2 43 43 S 7 11 30.09 1019 10 16 0.00 0.00
1:53 am 01:53 Clear 48 8.9 28 -2.2 46 46 S 7 11 30.07 1018 10 16 0.00 0.00
2:53 am 02:53 Mostly Clear 48 8.9 28 -2.2 46 46 SSE 5 7 30.07 1018 10 16 0.00 0.00
3:53 am 03:53 Mostly Clear 47 8.3 29 -1.7 50 50 SSE 5 7 30.07 1018 10 16 0.00 0.00
4:53 am 04:53 Cloudy 47 8.3 29 -1.7 50 50 SSE 5 7 30.08 1019 10 16 0.00 0.00
5:53 am 05:53 Cloudy with Light Rain 45 7.2 38 3.3 77 77 SSW 3 6 30.12 1020 6 10 0.04 1.02
6:53 am 06:53 Cloudy with Light Rain 43 6.1 41 5 93 93 ESE 8 13 30.11 1020 7 11 0.05 1.27
7:53 am 07:53 Cloudy with Rain 43 6.1 41 5 93 93 SE 6 9 30.11 1020 5 8 0.06 1.52
8:53 am 08:53 Cloudy with Rain 44 6.7 41 5 89 89 SE 10 17 30.11 1020 4 6 0.09 2.29
9:53 am 09:53 Cloudy with Light Rain 43 6.1 39 3.9 86 86 SE 9 15 30.10 1019 6 10 0.07 1.78
10:53 am 10:53 Cloudy with Light Rain 44 6.7 40 4.4 85 85 SE 15 24 30.09 1019 7 11 0.04 1.02
11:53 am 11:53 Cloudy with Light Rain 44 6.7 40 4.4 85 85 SSE 13 20 30.07 1018 7 11 0.05 1.27
12:53 pm 12:53 Cloudy with Light Rain 45 7.2 41 5 86 86 SSE 13 20 30.06 1018 8 13 0.02 0.51
1:53 pm 13:53 Cloudy 46 7.8 42 5.6 86 86 SSE 12 19 30.02 1017 9 14 0.01 0.25
2:53 pm 14:53 Cloudy 48 8.9 44 6.7 86 86 S 8 13 30.00 1016 9 14 0.00 0.00
3:53 pm 15:53 Cloudy 48 8.9 44 6.7 86 86 S 9 15 30.00 1016 9 14 0.00 0.00
4:53 pm 16:53 Cloudy with Light Rain 48 8.9 45 7.2 89 89 S 10 17 30.01 1016 5 8 0.01 0.25
5:53 pm 17:53 Cloudy 48 8.9 46 7.8 93 93 SSE 13 20 29.99 1016 10 16 0.02 0.51
6:53 pm 18:53 Cloudy 49 9.4 46 7.8 90 90 S 8 13 30.02 1017 10 16 0.00 0.00
7:53 pm 19:53 Cloudy 48 8.9 46 7.8 93 93 SSW 6 9 30.04 1017 10 16 0.00 0.00
8:22 pm 20:22 Cloudy with Light Rain 49 9.4 47 8.3 93 93 WSW 3 6 30.05 1018 6 10 0.01 0.25
8:53 pm 20:53 Cloudy with Light Rain 48 8.9 46 7.8 93 93 NNW 3 6 30.06 1018 4 6 0.02 0.51
9:06 pm 21:06 Cloudy with Light Rain 48 8.9 47 8.3 96 96 Calm 30.07 1018 3 4 0.02 0.51
9:27 pm 21:27 Cloudy with Rain 48 8.9 47 8.3 96 96 Calm 30.07 1018 1 2 0.04 1.02
9:45 pm 21:45 Cloudy with Light Rain 48 8.9 47 8.3 96 96 Calm 30.06 1018 2 3 0.07 1.78
9:53 pm 21:53 Cloudy with Light Rain 48 8.9 47 8.3 96 96 Calm 30.06 1018 3 4 0.07 1.78
10:01 pm 22:01 Cloudy with Light Rain 48 8.9 47 8.3 96 96 Calm 30.06 1018 2 3 0.01 0.25
10:08 pm 22:08 Cloudy with Light Rain 48 8.9 47 8.3 96 96 Calm 30.06 1018 2 3 0.02 0.51
10:15 pm 22:15 Cloudy with Rain 49 9.4 47 8.3 93 93 Calm 30.06 1018 2 3 0.03 0.76
10:33 pm 22:33 Cloudy with Light Rain 49 9.4 48 8.9 97 97 Calm 30.06 1018 3 5 0.05 1.27
10:41 pm 22:41 Cloudy with Light Rain 49 9.4 48 8.9 97 97 SW 3 6 30.06 1018 5 8 0.05 1.27
10:53 pm 22:53 Cloudy with Light Rain 49 9.4 48 8.9 97 97 Calm 30.05 1018 5 8 0.06 1.52
11:13 pm 23:13 Cloudy with Light Rain 49 9.4 48 8.9 97 97 Calm 30.06 1018 4 6 0.01 0.25
11:46 pm 23:46 Cloudy with Rain 49 9.4 48 8.9 97 97 SW 3 6 30.07 1018 3 4 0.07 1.78
11:53 pm 23:53 Cloudy with Light Rain 49 9.4 48 8.9 97 97 Calm 30.06 1018 3 5 0.08 2.03
11:58 pm 23:58 Cloudy with Light Rain 49 9.4 48 8.9 97 97 Calm 30.07 1018 3 5 0.00 0.00

Powered by AerisWeather